TimeCDT,TemperatureF,Dew PointF,Humidity,Sea Level PressureIn,VisibilityMPH,Wind Direction,Wind SpeedMPH,Gust SpeedMPH,PrecipitationIn,Events,Conditions,WindDirDegrees,DateUTC
12:15 AM,51.8,30.2,44,29.85,10.0,SSW,13.8,18.4,N/A,,Clear,210,2012-10-09 05:15:00
12:34 AM,51.8,30.2,44,29.86,10.0,SW,9.2,-,N/A,,Clear,220,2012-10-09 05:34:00
12:55 AM,50.0,32.0,50,29.84,10.0,SSW,13.8,-,N/A,,Clear,200,2012-10-09 05:55:00
1:15 AM,51.8,30.2,44,29.84,10.0,SSW,15.0,20.7,N/A,,Clear,200,2012-10-09 06:15:00
1:34 AM,51.8,30.2,44,29.84,10.0,SSW,11.5,17.3,N/A,,Clear,200,2012-10-09 06:34:00
1:35 AM,51.8,32.0,47,29.84,10.0,SSW,11.5,17.3,N/A,,Clear,200,2012-10-09 06:35:00
1:54 AM,51.8,30.2,44,29.85,10.0,SSW,9.2,-,N/A,,Clear,210,2012-10-09 06:54:00
1:55 AM,50.0,32.0,50,29.85,10.0,SSW,8.1,-,N/A,,Clear,210,2012-10-09 06:55:00
2:17 AM,51.8,30.2,44,29.84,10.0,SSW,9.2,-,N/A,,Clear,200,2012-10-09 07:17:00
2:35 AM,51.8,32.0,47,29.84,10.0,SSW,10.4,-,N/A,,Clear,200,2012-10-09 07:35:00
2:55 AM,50.0,32.0,50,29.82,10.0,SSW,10.4,-,N/A,,Clear,200,2012-10-09 07:55:00
3:14 AM,50.0,32.0,50,29.82,10.0,SSW,10.4,-,N/A,,Clear,200,2012-10-09 08:14:00
3:15 AM,50.0,32.0,50,29.82,10.0,SSW,10.4,-,N/A,,Clear,200,2012-10-09 08:15:00
3:34 AM,48.2,32.0,54,29.81,10.0,SSW,8.1,-,N/A,,Clear,200,2012-10-09 08:34:00
3:35 AM,48.2,32.0,54,29.81,10.0,SSW,8.1,-,N/A,,Clear,200,2012-10-09 08:35:00
3:54 AM,48.2,32.0,54,29.81,10.0,SSW,8.1,-,N/A,,Clear,200,2012-10-09 08:54:00
3:55 AM,48.2,32.0,54,29.81,10.0,SSW,6.9,-,N/A,,Clear,200,2012-10-09 08:55:00
4:15 AM,48.2,32.0,54,29.81,10.0,South,6.9,-,N/A,,Clear,190,2012-10-09 09:15:00
4:34 AM,48.2,32.0,54,29.81,10.0,South,6.9,-,N/A,,Clear,190,2012-10-09 09:34:00
4:35 AM,48.2,32.0,54,29.81,10.0,South,6.9,-,N/A,,Clear,190,2012-10-09 09:35:00
4:55 AM,48.2,32.0,54,29.81,10.0,South,5.8,-,N/A,,Clear,190,2012-10-09 09:55:00
5:14 AM,48.2,32.0,54,29.80,10.0,South,6.9,-,N/A,,Clear,170,2012-10-09 10:14:00
5:15 AM,48.2,32.0,54,29.80,10.0,South,6.9,-,N/A,,Clear,170,2012-10-09 10:15:00
5:35 AM,46.4,32.0,57,29.80,10.0,South,8.1,-,N/A,,Clear,180,2012-10-09 10:35:00
5:54 AM,48.2,32.0,54,29.79,10.0,South,6.9,-,N/A,,Clear,180,2012-10-09 10:54:00
5:55 AM,46.4,32.0,57,29.79,10.0,South,6.9,-,N/A,,Clear,180,2012-10-09 10:55:00
6:15 AM,46.4,32.0,57,29.80,10.0,South,9.2,-,N/A,,Clear,180,2012-10-09 11:15:00
6:35 AM,46.4,32.0,57,29.81,10.0,South,6.9,-,N/A,,Clear,190,2012-10-09 11:35:00
6:54 AM,48.2,32.0,54,29.81,10.0,SSW,8.1,-,N/A,,Clear,200,2012-10-09 11:54:00
6:55 AM,46.4,32.0,57,29.81,10.0,SSW,8.1,-,N/A,,Clear,200,2012-10-09 11:55:00
7:14 AM,46.4,32.0,57,29.82,10.0,SSW,6.9,-,N/A,,Clear,200,2012-10-09 12:14:00
7:15 AM,46.4,32.0,57,29.82,10.0,SSW,6.9,-,N/A,,Clear,200,2012-10-09 12:15:00
7:34 AM,46.4,32.0,57,29.81,10.0,South,4.6,-,N/A,,Clear,180,2012-10-09 12:34:00
7:35 AM,46.4,32.0,57,29.81,10.0,South,4.6,-,N/A,,Clear,180,2012-10-09 12:35:00
7:54 AM,46.4,33.8,62,29.82,10.0,South,4.6,-,N/A,,Clear,190,2012-10-09 12:54:00
7:55 AM,46.4,32.0,57,29.82,10.0,South,4.6,-,N/A,,Clear,190,2012-10-09 12:55:00
8:15 AM,46.4,32.0,57,29.81,10.0,South,5.8,-,N/A,,Clear,180,2012-10-09 13:15:00
8:16 AM,46.4,33.8,62,29.81,10.0,South,4.6,-,N/A,,Clear,190,2012-10-09 13:16:00
8:35 AM,46.4,32.0,57,29.81,10.0,South,5.8,-,N/A,,Clear,180,2012-10-09 13:35:00
8:54 AM,48.2,33.8,58,29.81,10.0,South,5.8,-,N/A,,Clear,190,2012-10-09 13:54:00
8:55 AM,46.4,32.0,57,29.81,10.0,South,5.8,-,N/A,,Clear,190,2012-10-09 13:55:00
9:15 AM,48.2,32.0,54,29.82,10.0,SW,8.1,-,N/A,,Clear,220,2012-10-09 14:15:00
9:34 AM,50.0,33.8,54,29.82,10.0,WSW,6.9,-,N/A,,Clear,240,2012-10-09 14:34:00
9:35 AM,50.0,32.0,50,29.82,10.0,WSW,8.1,-,N/A,,Clear,240,2012-10-09 14:35:00
9:54 AM,51.8,33.8,50,29.83,10.0,WSW,10.4,-,N/A,,Clear,240,2012-10-09 14:54:00
9:55 AM,51.8,32.0,47,29.83,10.0,SW,10.4,-,N/A,,Clear,230,2012-10-09 14:55:00
10:15 AM,51.8,32.0,47,29.83,10.0,WSW,9.2,-,N/A,,Clear,250,2012-10-09 15:15:00
10:16 AM,51.8,33.8,50,29.83,10.0,West,9.2,-,N/A,,Clear,260,2012-10-09 15:16:00
10:34 AM,53.6,35.6,51,29.83,10.0,West,9.2,-,N/A,,Clear,260,2012-10-09 15:34:00
10:35 AM,51.8,33.8,50,29.83,10.0,West,9.2,-,N/A,,Clear,260,2012-10-09 15:35:00
10:55 AM,51.8,35.6,54,29.83,10.0,West,10.4,-,N/A,,Clear,260,2012-10-09 15:55:00
11:14 AM,53.6,37.4,54,29.83,10.0,West,10.4,-,N/A,,Clear,260,2012-10-09 16:14:00
11:15 AM,53.6,35.6,51,29.83,10.0,West,10.4,-,N/A,,Clear,270,2012-10-09 16:15:00
11:34 AM,55.4,37.4,51,29.82,10.0,WNW,11.5,-,N/A,,Clear,290,2012-10-09 16:34:00
11:35 AM,53.6,35.6,51,29.82,10.0,WNW,12.7,-,N/A,,Clear,290,2012-10-09 16:35:00
11:54 AM,53.6,39.2,58,29.84,10.0,West,15.0,19.6,N/A,,Clear,280,2012-10-09 16:54:00
11:55 AM,53.6,37.4,54,29.84,10.0,West,15.0,19.6,N/A,,Clear,280,2012-10-09 16:55:00
12:14 PM,51.8,41.0,67,29.84,10.0,WNW,13.8,21.9,N/A,Rain,Rain,290,2012-10-09 17:14:00
12:15 PM,51.8,41.0,67,29.84,10.0,WNW,12.7,21.9,N/A,Rain,Rain,290,2012-10-09 17:15:00
12:34 PM,48.2,44.6,87,29.85,7.0,WNW,17.3,23.0,N/A,Rain,Light Rain,300,2012-10-09 17:34:00
12:35 PM,48.2,42.8,82,29.85,7.0,WNW,17.3,23.0,N/A,Rain,Light Rain,300,2012-10-09 17:35:00
12:55 PM,44.6,41.0,87,29.86,7.0,NW,17.3,29.9,0.01,Rain,Light Rain,320,2012-10-09 17:55:00
1:14 PM,44.6,41.0,87,29.86,5.0,NW,15.0,23.0,0.03,Rain,Rain,320,2012-10-09 18:14:00
1:15 PM,42.8,41.0,93,29.86,5.0,NW,13.8,23.0,0.03,Rain,Rain,320,2012-10-09 18:15:00
1:34 PM,44.6,41.0,87,29.86,7.0,NW,10.4,-,0.07,Rain,Rain,310,2012-10-09 18:34:00
1:35 PM,42.8,41.0,93,29.86,7.0,NW,10.4,-,0.07,Rain,Rain,310,2012-10-09 18:35:00
1:54 PM,44.6,41.0,87,29.86,10.0,NW,9.2,16.1,0.09,Rain,Light Rain,310,2012-10-09 18:54:00
1:55 PM,42.8,41.0,93,29.86,10.0,NW,9.2,16.1,0.09,Rain,Light Rain,310,2012-10-09 18:55:00
2:14 PM,44.6,41.0,87,29.87,10.0,WNW,13.8,18.4,0.02,Rain,Light Rain,300,2012-10-09 19:14:00
2:15 PM,42.8,41.0,93,29.87,10.0,WNW,15.0,18.4,0.02,Rain,Light Rain,300,2012-10-09 19:15:00
2:34 PM,44.6,39.2,81,29.88,10.0,WNW,9.2,-,0.04,Rain,Rain,300,2012-10-09 19:34:00
2:35 PM,42.8,39.2,87,29.88,10.0,WNW,10.4,-,0.04,Rain,Rain,300,2012-10-09 19:35:00
2:54 PM,42.8,39.2,87,29.89,7.0,WNW,11.5,-,0.06,Rain,Rain,300,2012-10-09 19:54:00
2:55 PM,42.8,37.4,81,29.89,7.0,WNW,11.5,-,0.06,Rain,Rain,300,2012-10-09 19:55:00
3:14 PM,42.8,39.2,87,29.89,7.0,West,6.9,-,0.04,Rain,Rain,280,2012-10-09 20:14:00
3:15 PM,41.0,37.4,87,29.89,7.0,West,6.9,-,0.04,Rain,Rain,280,2012-10-09 20:15:00
3:33 PM,42.8,39.2,87,29.89,10.0,WSW,5.8,-,0.05,Rain,Rain,240,2012-10-09 20:33:00
3:35 PM,41.0,37.4,87,29.89,10.0,WSW,5.8,-,0.05,Rain,Rain,240,2012-10-09 20:35:00
3:54 PM,42.8,37.4,81,29.89,10.0,WSW,5.8,-,0.06,,Clear,240,2012-10-09 20:54:00
3:55 PM,41.0,37.4,87,29.89,10.0,SW,4.6,-,0.06,,Clear,230,2012-10-09 20:55:00
4:14 PM,42.8,39.2,87,29.89,10.0,SW,8.1,-,N/A,,Clear,230,2012-10-09 21:14:00
4:15 PM,41.0,37.4,87,29.89,10.0,SW,8.1,-,N/A,,Clear,230,2012-10-09 21:15:00
4:34 PM,42.8,39.2,87,29.89,10.0,SW,6.9,-,N/A,,Clear,230,2012-10-09 21:34:00
4:35 PM,42.8,37.4,81,29.89,10.0,SW,5.8,-,N/A,,Clear,230,2012-10-09 21:35:00
4:54 PM,42.8,39.2,87,29.89,10.0,SW,9.2,-,N/A,,Clear,220,2012-10-09 21:54:00
4:55 PM,42.8,39.2,87,29.89,10.0,SW,10.4,-,N/A,,Clear,220,2012-10-09 21:55:00
5:14 PM,42.8,39.2,87,29.89,10.0,SW,9.2,-,N/A,,Clear,230,2012-10-09 22:14:00
5:15 PM,42.8,39.2,87,29.89,10.0,SW,9.2,-,N/A,,Clear,230,2012-10-09 22:15:00
5:34 PM,42.8,39.2,87,29.89,10.0,WSW,8.1,-,N/A,,Clear,240,2012-10-09 22:34:00
5:35 PM,42.8,39.2,87,29.89,10.0,WSW,8.1,-,N/A,,Clear,240,2012-10-09 22:35:00
5:54 PM,44.6,39.2,81,29.89,10.0,WSW,6.9,-,N/A,,Clear,240,2012-10-09 22:54:00
5:55 PM,42.8,39.2,87,29.89,10.0,WSW,6.9,-,N/A,,Clear,240,2012-10-09 22:55:00
6:14 PM,42.8,39.2,87,29.89,10.0,WSW,5.8,-,N/A,,Clear,240,2012-10-09 23:14:00
6:15 PM,42.8,39.2,87,29.89,10.0,WSW,5.8,-,N/A,,Clear,240,2012-10-09 23:15:00
6:34 PM,42.8,39.2,87,29.89,10.0,SW,5.8,-,N/A,,Clear,230,2012-10-09 23:34:00
6:35 PM,42.8,39.2,87,29.90,10.0,SW,5.8,-,N/A,,Clear,230,2012-10-09 23:35:00
6:54 PM,42.8,39.2,87,29.90,10.0,West,5.8,-,N/A,,Clear,260,2012-10-09 23:54:00
6:55 PM,42.8,39.2,87,29.90,10.0,West,6.9,-,N/A,,Clear,260,2012-10-09 23:55:00
7:14 PM,42.8,35.6,76,29.91,10.0,WNW,11.5,-,N/A,,Clear,290,2012-10-10 00:14:00
7:15 PM,42.8,35.6,76,29.91,10.0,WNW,11.5,-,N/A,,Clear,290,2012-10-10 00:15:00
7:34 PM,42.8,33.8,70,29.92,10.0,WNW,8.1,-,N/A,,Clear,300,2012-10-10 00:34:00
7:35 PM,42.8,33.8,70,29.92,10.0,WNW,8.1,-,N/A,,Clear,300,2012-10-10 00:35:00
7:54 PM,41.0,32.0,70,29.93,10.0,WNW,8.1,-,N/A,,Clear,300,2012-10-10 00:54:00
7:55 PM,41.0,32.0,70,29.93,10.0,WNW,8.1,-,N/A,,Clear,300,2012-10-10 00:55:00
8:14 PM,39.2,32.0,75,29.93,10.0,WNW,6.9,-,N/A,,Clear,290,2012-10-10 01:14:00
8:15 PM,39.2,32.0,75,29.93,10.0,WNW,6.9,-,N/A,,Clear,290,2012-10-10 01:15:00
8:34 PM,39.2,32.0,75,29.93,10.0,West,6.9,-,N/A,,Clear,270,2012-10-10 01:34:00
8:35 PM,39.2,32.0,75,29.93,10.0,West,6.9,-,N/A,,Clear,270,2012-10-10 01:35:00
8:55 PM,37.4,32.0,81,29.94,10.0,West,5.8,-,N/A,,Clear,270,2012-10-10 01:55:00
9:14 PM,41.0,30.2,65,29.95,10.0,WNW,10.4,-,N/A,,Clear,290,2012-10-10 02:14:00
9:15 PM,41.0,32.0,70,29.95,10.0,WNW,10.4,-,N/A,,Clear,290,2012-10-10 02:15:00
9:34 PM,39.2,30.2,70,29.97,10.0,WNW,10.4,-,N/A,,Clear,290,2012-10-10 02:34:00
9:35 PM,37.4,32.0,81,29.97,10.0,WNW,10.4,-,N/A,,Clear,290,2012-10-10 02:35:00
9:54 PM,37.4,30.2,75,29.97,10.0,WNW,9.2,-,N/A,,Clear,290,2012-10-10 02:54:00
9:55 PM,35.6,30.2,81,29.97,10.0,WNW,9.2,-,N/A,,Clear,290,2012-10-10 02:55:00
10:14 PM,37.4,30.2,75,29.99,10.0,WNW,9.2,-,N/A,,Clear,290,2012-10-10 03:14:00
10:15 PM,35.6,30.2,81,29.99,10.0,WNW,9.2,-,N/A,,Clear,290,2012-10-10 03:15:00
10:34 PM,37.4,28.4,70,29.99,10.0,NW,9.2,16.1,N/A,,Clear,310,2012-10-10 03:34:00
10:35 PM,35.6,30.2,81,29.99,10.0,NW,10.4,16.1,N/A,,Clear,310,2012-10-10 03:35:00
10:54 PM,37.4,28.4,70,29.99,10.0,NW,11.5,-,N/A,,Clear,310,2012-10-10 03:54:00
10:55 PM,35.6,28.4,75,29.99,10.0,NW,11.5,-,N/A,,Clear,310,2012-10-10 03:55:00
11:14 PM,35.6,26.6,70,30.00,10.0,NW,10.4,-,N/A,,Clear,310,2012-10-10 04:14:00
11:15 PM,35.6,28.4,75,30.00,10.0,NW,10.4,-,N/A,,Clear,310,2012-10-10 04:15:00
11:34 PM,35.6,26.6,70,29.99,10.0,WNW,10.4,-,N/A,,Clear,300,2012-10-10 04:34:00
11:35 PM,35.6,28.4,75,29.99,10.0,WNW,10.4,-,N/A,,Clear,300,2012-10-10 04:35:00
11:54 PM,35.6,26.6,70,30.00,10.0,WNW,8.1,-,N/A,,Clear,290,2012-10-10 04:54:00
11:55 PM,35.6,28.4,75,30.00,10.0,WNW,8.1,-,N/A,,Clear,290,2012-10-10 04:55:00